Location: Caltech
(34.1382°N, 118.1253°W)
Time: 21:44:44
(UTC-07:00)

BREEZE M DEB (TANK) - Visible Passes

Search period start: 31 October 2014 00:00
Search period end: 09 November 2014 23:00
Orbit: 339 x 13817 km, 49.6° (Epoch: 31 October)

Date Brightness Start Highest point End Pass type
(mag) Time Alt. Az. Time Alt. Az. Time Alt. Az.
31 Oct 4.5 05:31:24 17° N 05:32:34 21° NE 05:36:07 10° E visible
31 Oct 7.2 22:03:28 10° SSW 22:20:44 33° SSW 22:20:44 33° SSW visible
01 Nov 7.4 19:27:00 10° S 19:51:08 20° SE 19:55:43 18° SE visible
02 Nov 5.2 03:59:52 14° NE 03:59:52 14° NE 04:01:44 10° ENE visible
02 Nov 6.9 20:27:12 10° SSW 20:49:41 38° S 20:49:41 38° S visible
03 Nov 7.4 17:54:12 10° SSE 18:16:36 17° SE 18:24:38 13° ESE visible
03 Nov 7.7 22:39:31 10° WSW 22:43:37 16° WSW 22:43:37 16° WSW visible
04 Nov 6.7 19:50:50 10° SSW 20:18:33 42° SSE 20:18:33 42° SSE visible
05 Nov 3.2 05:21:56 16° NW 05:24:20 76° SW 05:32:09 10° SE visible
05 Nov 7.5 17:22:39 10° SSE 17:41:49 15° SE 17:51:50 10° ESE visible
05 Nov 7.4 22:03:05 10° SW 22:12:26 24° WSW 22:12:26 24° WSW visible
06 Nov 6.6 19:14:29 10° SSW 19:47:19 40° SE 19:47:19 40° SE visible
07 Nov 2.9 04:50:16 40° NW 04:51:21 77° NE 04:57:52 10° SE visible
07 Nov 7.0 21:26:16 10° SW 21:41:10 34° SW 21:41:10 34° SW visible
08 Nov 6.5 18:38:15 10° SSW 19:13:24 36° SE 19:16:00 35° ESE visible
09 Nov 3.4 04:18:34 50° ENE 04:18:34 50° ENE 04:23:36 10° ESE visible
09 Nov 6.5 20:49:04 10° SW 21:09:47 45° SW 21:09:47 45° SW visible
